Skip Page Navigation
NASA JPL Caltech
NASA Logo - Jet Propulsion Laboratory + View the NASA Portal
+ Center for Near-Earth Object Studies
JPL Home Earth Solar System Stars & Galaxies Technology
JPL Solar System Dynamics
BODIES ORBITS EPHEMERIDES TOOLS PHYSICAL DATA DISCOVERY FAQ SITE MAP
JPL Small-Body Database Browser
Search: [ help ]  
212027 (2005 CV24)
Classification: Main-belt Asteroid          SPK-ID: 2212027
Ephemeris | Orbit Diagram | Orbital Elements | Mission Design | Physical Parameters | Discovery Circumstances ]

[ show orbit diagram ]
Orbital Elements at Epoch 2459000.5 (2020-May-31.0) TDB
Reference: JPL 19 (heliocentric ecliptic J2000)
 Element Value Uncertainty (1-sigma)   Units 
e .1030127727903049 3.8597e-08  
a 2.438982581440876 1.9084e-08 au
q 2.187736222939396 9.6318e-08 au
i 7.014219531215143 6.4396e-06 deg
node 232.3938980579226 3.4889e-05 deg
peri 263.0555467986497 4.9275e-05 deg
M 7.367447797024664 3.4135e-05 deg
tp 2458972.027471164605
(2020-May-02.52747116)
0.00013183 TDB
period 1391.270174304007
3.81
1.6329e-05
4.471e-08
d
yr
n .2587563556302734 3.037e-09 deg/d
Q 2.690228939942357 2.105e-08 au
  Orbit Determination Parameters
   # obs. used (total)      397  
   data-arc span      5999 days (16.42 yr)  
   first obs. used      2003-08-28  
   last obs. used      2020-01-30  
   planetary ephem.      DE431  
   SB-pert. ephem.      SB431-N16  
   condition code      0  
   norm. resid. RMS      .54443  
   source      ORB  
   producer      Otto Matic  
   solution date      2020-Feb-25 02:41:03  

Additional Information
 Earth MOID = 1.2149 au 
 Jupiter MOID = 2.37942 au 
 T_jup = 3.485 
[ show covariance matrix ]

Ephemeris | Orbit Diagram | Orbital Elements | Mission Design | Physical Parameters | Discovery Circumstances ]

Physical Parameter Table
Parameter Symbol Value Units Sigma Reference Notes
absolute magnitude H 16.2   n/a MPO454521  

212027 (2005 CV24)          Discovered 2005-Feb-04 by CSS at Catalina
Reference: 20090409/Numbers.arcLast Updated: 2009-04-10
Ephemeris | Orbit Diagram | Orbital Elements | Mission Design | Physical Parameters | Discovery Circumstances ]
ABOUT SSD CREDITS/AWARDS PRIVACY/COPYRIGHT GLOSSARY LINKS
FirstGov 2020-Jul-13 04:48 UT
(server date/time)  
NASA Home Page
Site Manager:   Ryan S. Park
Webmaster  Alan B. Chamberlin